Weather History for Fort Myers, FL

Change the Weather History Date:

Wednesday, April 17, 2013

  Actual Average Record
Temperature  
Mean Temperature 79 °F 74 °F  
Max Temperature 89 °F 85 °F 94 °F (1944)
Min Temperature 69 °F 63 °F 45 °F (1962)
Degree Days  
Heating Degree Days 0 0  
Month to date heating degree days 0 0  
Since 1 July heating degree days 201 284  
Cooling Degree Days 14 9  
Month to date cooling degree days 197 137  
Year to date cooling degree days 579 498  
Growing Degree Days 29 (Base 50)    
Moisture  
Dew Point 65 °F    
Average Humidity 65    
Maximum Humidity 90    
Minimum Humidity 40    
Precipitation  
Precipitation 0.00 in 0.07 in 1.82 in (1942)
Month to date precipitation 1.44 1.28  
Year to date precipitation 4.70 8.25  
Sea Level Pressure  
Sea Level Pressure 30.07 in    
Wind  
Wind Speed 8 mph (East)    
Max Wind Speed 16 mph    
Max Gust Speed 20 mph    
Visibility 10 miles    
Events      
T = Trace of Precipitation, MM = Missing Value Source: NWS Daily Summary

Daily Weather History Graph

Daily Weather History Graph

Search for Another Location

Airport:

Trip Planner

Search our weather history database for the weather conditions in past years. The results will help you decide how hot, cold, wet, or windy it might be!

Date:

Astronomy

Apr. 17, 2013 Rise Set
Actual Time 7:01 AM EDT 7:52 PM EDT
Civil Twilight 6:37 AM EDT 8:16 PM EDT
Nautical Twilight 6:09 AM EDT 8:44 PM EDT
Astronomical Twilight 5:41 AM EDT 9:13 PM EDT
Moon 12:25 PM EDT (4/17) 1:17 AM EDT (4/17)
Length of Visible Light 13h 38m
Length of Day
12h 50m
Waxing Crescent, 42% of the Moon is Illuminated
Apr 17
Waxing Crescent
Apr 18
First Quarter
Apr 25
Full
May 2
Last Quarter
May 9
New

Hourly Weather History & Observations

Time (EDT) Temp. Heat Index Dew Point Humidity Pressure Visibility Wind Dir Wind Speed Gust Speed Precip Events Conditions
12:53 AM 73.9 °F - 68.0 °F 82% 30.12 in 10.0 mi ENE 8.1 mph - N/A   Partly Cloudy
1:53 AM 73.0 °F - 69.1 °F 87% 30.11 in 10.0 mi East 3.5 mph - N/A   Scattered Clouds
2:53 AM 72.0 °F - 68.0 °F 87% 30.10 in 10.0 mi NE 5.8 mph - N/A   Clear
3:53 AM 71.1 °F - 68.0 °F 90% 30.09 in 10.0 mi East 3.5 mph - N/A   Clear
4:53 AM 70.0 °F - 66.9 °F 90% 30.08 in 10.0 mi ENE 6.9 mph - N/A   Clear
5:53 AM 70.0 °F - 66.9 °F 90% 30.09 in 10.0 mi ENE 6.9 mph - N/A   Clear
6:53 AM 70.0 °F - 66.9 °F 90% 30.10 in 10.0 mi ENE 5.8 mph - N/A   Scattered Clouds
7:53 AM 71.1 °F - 66.9 °F 87% 30.12 in 10.0 mi NE 6.9 mph - N/A   Clear
8:53 AM 73.9 °F - 66.9 °F 79% 30.12 in 10.0 mi ENE 11.5 mph - N/A   Clear
10:53 AM 81.0 °F 83.0 °F 66.0 °F 60% 30.11 in 10.0 mi ENE 11.5 mph - N/A   Clear
11:53 AM 82.9 °F 85.0 °F 66.0 °F 56% 30.09 in 10.0 mi ENE 12.7 mph - N/A   Scattered Clouds
12:53 PM 84.9 °F 87.1 °F 66.0 °F 53% 30.07 in 10.0 mi East 10.4 mph - N/A   Scattered Clouds
1:53 PM 86.0 °F 87.6 °F 64.9 °F 49% 30.05 in 10.0 mi ESE 10.4 mph 17.3 mph N/A   Partly Cloudy
2:53 PM 86.0 °F 86.8 °F 63.0 °F 46% 30.04 in 10.0 mi ESE 6.9 mph - N/A   Partly Cloudy
3:53 PM 88.0 °F 88.7 °F 63.0 °F 43% 30.02 in 10.0 mi Variable 6.9 mph - N/A   Scattered Clouds
4:53 PM 88.0 °F 87.9 °F 61.0 °F 40% 30.01 in 10.0 mi ESE 9.2 mph - N/A   Partly Cloudy
5:53 PM 87.1 °F 87.0 °F 61.0 °F 41% 30.01 in 10.0 mi NE 9.2 mph - N/A   Clear
6:53 PM 84.9 °F 85.0 °F 61.0 °F 44% 30.01 in 10.0 mi ENE 8.1 mph - N/A   Partly Cloudy
7:53 PM 82.9 °F 83.3 °F 61.0 °F 47% 30.02 in 10.0 mi East 6.9 mph - N/A   Scattered Clouds
8:49 PM 80.6 °F 81.5 °F 60.8 °F 51% 30.02 in 10.0 mi East 5.8 mph - N/A   Partly Cloudy
8:53 PM 80.1 °F 81.1 °F 61.0 °F 52% 30.04 in 10.0 mi East 6.9 mph - N/A   Clear
9:53 PM 78.1 °F - 63.0 °F 60% 30.05 in 10.0 mi East 8.1 mph - N/A   Clear
10:53 PM 75.9 °F - 64.0 °F 67% 30.06 in 10.0 mi East 8.1 mph - N/A   Mostly Cloudy
11:53 PM 75.0 °F - 63.0 °F 66% 30.06 in 10.0 mi East 8.1 mph - N/A   Overcast